| time (UTC) | temp F | wind direction | speed knots | gust knots | rain 1hr in | rain 24hr in | rain mn in | humidity % | barometer mb |
| 20260504223905 | 78 | 354 | 4.3 | 8.7 | 0.00 | 0.00 | 0.00 | 37 | 1009.6 |
| 20260504223007 | 78 | 296 | 5.2 | 10.4 | 0.00 | 0.00 | 0.00 | 37 | 1009.9 |
| 20260504222105 | 79 | 302 | 6.1 | 10.4 | 0.00 | 0.00 | 0.00 | 36 | 1009.8 |
| 20260504221205 | 78 | 321 | 7.0 | 11.3 | 0.00 | 0.00 | 0.00 | 36 | 1010.0 |
| 20260504220304 | 79 | 311 | 5.2 | 12.2 | 0.00 | 0.00 | 0.00 | 36 | 1010.0 |
| 20260504215405 | 79 | 298 | 3.5 | 12.2 | 0.00 | 0.00 | 0.00 | 36 | 1009.9 |
| 20260504214505 | 78 | 259 | 3.5 | 6.1 | 0.00 | 0.00 | 0.00 | 37 | 1010.2 |
| 20260504212705 | 78 | 271 | 6.1 | 9.6 | 0.00 | 0.00 | 0.00 | 37 | 1010.6 |
| 20260504210006 | 78 | 307 | 7.0 | 12.2 | 0.00 | 0.00 | 0.00 | 38 | 1010.8 |
| 20260504205104 | 79 | 299 | 7.0 | 13.0 | 0.00 | 0.00 | 0.00 | 37 | 1010.9 |
| 20260504204204 | 80 | 271 | 6.1 | 13.0 | 0.00 | 0.00 | 0.00 | 36 | 1011.0 |
| 20260504203305 | 81 | 267 | 2.6 | 10.4 | 0.00 | 0.00 | 0.00 | 34 | 1010.8 |
| 20260504202404 | 80 | 194 | 3.5 | 7.8 | 0.00 | 0.00 | 0.00 | 36 | 1010.8 |
| 20260504201505 | 79 | 208 | 2.6 | 8.7 | 0.00 | 0.00 | 0.00 | 37 | 1010.7 |
| 20260504200604 | 80 | 195 | 4.3 | 6.1 | 0.00 | 0.00 | 0.00 | 36 | 1010.8 |
| 20260504195706 | 78 | 293 | 2.6 | 8.7 | 0.00 | 0.00 | 0.00 | 38 | 1010.9 |
| 20260504194804 | 78 | 306 | 3.5 | 7.0 | 0.00 | 0.00 | 0.00 | 39 | 1010.8 |
| 20260504193904 | 78 | 278 | 7.0 | 10.4 | 0.00 | 0.00 | 0.00 | 39 | 1010.8 |
| 20260504193005 | 78 | 296 | 7.0 | 11.3 | 0.00 | 0.00 | 0.00 | 39 | 1011.3 |
| 20260504192105 | 78 | 294 | 7.0 | 13.0 | 0.00 | 0.00 | 0.00 | 40 | 1011.3 |
| 20260504191204 | 79 | 276 | 5.2 | 13.0 | 0.00 | 0.00 | 0.00 | 39 | 1011.2 |
| 20260504185405 | 78 | 316 | 5.2 | 8.7 | 0.00 | 0.00 | 0.00 | 40 | 1010.8 |
| 20260504184504 | 77 | 304 | 5.2 | 9.6 | 0.00 | 0.00 | 0.00 | 40 | 1010.8 |
| 20260504183604 | 77 | 313 | 6.1 | 10.4 | 0.00 | 0.00 | 0.00 | 40 | 1010.9 |
| 20260504182704 | 77 | 305 | 7.8 | 12.2 | 0.00 | 0.00 | 0.00 | 41 | 1011.3 |
| 20260504181804 | 77 | 293 | 7.0 | 12.2 | 0.00 | 0.00 | 0.00 | 42 | 1011.7 |
| 20260504180904 | 77 | 293 | 6.1 | 11.3 | 0.00 | 0.00 | 0.00 | 42 | 1011.7 |
| 20260504175104 | 76 | 292 | 3.5 | 6.1 | 0.00 | 0.00 | 0.00 | 44 | 1010.9 |
| 20260504173304 | 75 | 281 | 4.3 | 7.8 | 0.00 | 0.00 | 0.00 | 43 | 1010.8 |
| 20260504172404 | 76 | 290 | 5.2 | 8.7 | 0.00 | 0.00 | 0.00 | 42 | 1010.8 |
| 20260504171504 | 76 | 273 | 3.5 | 11.3 | 0.00 | 0.00 | 0.00 | 41 | 1011.1 |
| 20260504170604 | 78 | 241 | 3.5 | 9.6 | 0.00 | 0.00 | 0.00 | 33 | 1011.1 |
| 20260504160304 | 76 | 192 | 5.2 | 9.6 | 0.00 | 0.00 | 0.00 | 33 | 1011.3 |